Regional Weather Roundup
Issued by NWS

Home | Current Version | Previous Version | Graphics & Text | Print | Product List | Glossary On
Versions: 1 2 3 4 5 6 7 8 9 10 11 12 13 14 15 16 17 18 19 20 21 22 23 24 25 26 27 28 29 30 31 32 33 34 35 36 37 38 39 40 41 42 43 44 45 46 47 48 49 50
193
ASUS45 KBOI 210010
RWRID

IDAHO REGIONAL WEATHER ROUNDUP
NATIONAL WEATHER SERVICE BOISE ID
600 PM MDT FRI OCT 20 2017

NOTE: "FAIR" INDICATES FEW OR NO CLOUDS BELOW 12000 FEET
WITH NO SIGNIFICANT WEATHER AND/OR OBSTRUCTIONS TO VISIBILITY

IDZ012-014-210100-
SOUTHWEST IDAHO


CITY           SKY/WX    TMP DP  RH WIND       PRES   REMARKS
BOISE          LGT RAIN  50  31  48 W9        29.88R
CALDWELL       MOCLDY    52  32  46 SW21G28   29.87R
MOUNTAIN HOME  PTCLDY    51  27  40 W14       29.88R
$$

IDZ016-017-210100-
SOUTHCENTRAL IDAHO


CITY           SKY/WX    TMP DP  RH WIND       PRES   REMARKS
BURLEY         LGT RAIN  41  34  76 W13       29.88R
JEROME         MOCLDY    45  34  65 SW15      29.89R
TWIN FALLS     MOCLDY    41  33  73 SW17G29   29.90R
$$

IDZ019>023-210100-
SOUTHEAST IDAHO


CITY           SKY/WX    TMP DP  RH WIND       PRES   REMARKS
IDAHO FALLS    CLOUDY    43  29  57 SW21G31   29.78R
POCATELLO      PTCLDY    43  31  62 SW30G45   29.82S
REXBURG        LGT SNOW  34  33  96 NE8       29.79R FOG     WCI  27
$$

IDZ006-010-011-018-031-032-210100-
CENTRAL IDAHO MOUNTAINS


CITY           SKY/WX    TMP DP  RH WIND       PRES   REMARKS
MCCALL         CLOUDY    37  31  78 SE6       29.82R WCI  32
HAILEY         PTCLDY    43  23  45 W12G20    29.82R
STANLEY          N/A     30  29  96 VRB3      29.83R
SALMON         CLOUDY    44  30  57 W6        29.77R
CHALLIS        PTCLDY    44  18  35 NW9       29.77R
$$

IDZ002-004-006-007-026-210100-
NORTHERN IDAHO


CITY           SKY/WX    TMP DP  RH WIND       PRES   REMARKS
LEWISTON       PTCLDY    56  34  43 W14G20    29.79R
LOWELL           N/A     43  42  97 CALM      29.84R
COEUR D`ALENE  MOCLDY    50  36  58 SW20G25   29.72R
MULLAN PASS    LGT SNOW  29  27  92 W12G23    29.68R FOG     WCI  19
$$




USA.gov is the U.S. government's official web portal to all federal, state and local government web resources and services.